SCP
1 1 1 1 1 1 2 2 2 3 2 2 2 2 2 1 1 1 1 1 1 1 1 1 1 1 1 1 1 1 1 1 1 1 1 1 1 1 1 1 1 1 2
1 1 1 1 1 2 2 2 3 3 3 2 2 2 2 1 1 1 2 2 2 2 1 1 1 1 1 1 1 1 1 1 1 1 1 1 1 1 1 1 1 1 2
1 1 1 1 1 2 2 3 3 3 3 3 2 2 2 2 1 2 2 2 2 2 1 1 1 1 1 1 1 1 1 1 1 2 1 1 1 1 1 1 1 1 1
2 1 1 2 2 2 2 3 3 3 3 3 2 2 2 2 1 2 2 2 2 2 2 1 1 1 1 1 1 1 1 2 2 2 2 1 1 1 1 1 1 1 1
2 2 2 2 2 3 3 3 3 4 3 3 3 2 2 2 2 2 2 2 2 2 2 2 1 1 1 1 1 1 1 2 2 2 2 2 2 2 1 1 2 1 1
3 3 3 3 3 3 3 3 4 4 3 3 3 3 2 2 2 2 2 3 3 3 2 2 2 2 2 1 1 1 1 1 2 2 2 2 2 2 2 1 1 1 1
5 4 3 3 3 3 3 3 4 4 4 3 3 3 3 3 2 3 3 4 4 3 3 3 3 2 2 2 1 1 1 1 1 1 1 2 2 2 2 1 1 1 1
6 6 5 4 3 3 3 4 4 5 4 4 3 3 3 3 2 2 3 4 4 4 4 3 2 2 2 2 2 1 1 1 1 1 1 2 2 2 2 1 1 1 1
7 6 5 5 4 3 3 4 5 5 5 4 3 3 3 2 2 2 3 4 4 4 4 3 2 2 2 2 2 2 1 1 1 1 1 1 1 2 2 2 1 1 1
5 5 5 5 4 3 3 3 4 4 4 3 3 3 3 3 2 2 2 3 4 4 3 3 3 2 2 2 2 2 2 2 1 1 1 1 1 2 2 1 1 1 1
4 4 4 4 3 3 2 3 4 4 3 3 4 4 4 3 2 2 2 3 3 3 3 3 3 3 3 3 3 2 2 2 2 2 2 1 1 1 1 1 1 1 1
3 3 3 3 3 3 3 3 4 4 3 4 5 6 6 4 3 3 3 3 4 3 3 3 3 3 3 3 3 3 3 3 3 2 2 2 2 2 2 1 1 1 1
3 3 3 3 4 4 4 3 3 3 4 6 8 8 6 4 3 3 3 4 4 4 3 3 3 3 3 3 3 3 3 3 3 3 3 3 2 2 2 2 2 2 1
4 3 3 4 4 4 4 3 3 4 5 8 9 8 5 3 2 3 3 4 5 4 3 3 3 3 3 3 3 3 3 3 3 3 3 3 3 3 2 2 2 2 2
5 5 4 4 4 4 3 3 4 5 7 10 8 5 3 3 3 3 4 5 5 4 3 2 3 3 2 3 3 3 3 3 3 3 3 3 2 2 2 2 2 2 2
5 6 5 5 4 4 4 4 5 7 9 8 6 3 3 3 4 5 5 6 5 4 3 3 3 3 2 2 2 2 2 3 2 2 2 2 2 1 1 1 1 1 1
4 5 5 6 6 5 5 5 6 8 8 7 5 4 3 3 5 6 7 6 5 4 3 3 3 2 2 1 1 1 2 2 2 2 2 2 2 2 1 1 1 1 1
3 3 4 5 5 6 6 6 6 7 7 8 8 7 6 6 6 7 7 6 5 4 3 3 2 2 2 1 1 1 2 3 3 3 3 3 3 3 2 2 1 1 1
4 4 4 4 4 6 8 8 7 6 7 9 13 14 13 10 8 7 7 6 4 3 3 2 2 2 2 1 1 1 2 4 5 5 5 4 4 3 3 3 3 2 1
4 4 4 5 5 7 9 10 8 6 6 9 14 17 15 11 8 7 5 4 4 3 3 2 2 2 2 2 1 1 3 6 8 8 7 5 4 3 2 3 4 3 3
4 4 5 6 7 8 10 11 10 8 7 9 11 12 11 8 6 5 4 4 4 4 3 3 3 3 3 2 1 1 4 8 10 10 7 4 3 2 1 2 3 3 3
5 4 5 7 8 9 10 10 10 9 9 8 7 7 6 5 5 4 5 5 5 4 3 3 3 3 3 3 1 1 3 6 8 7 4 2 1 1 0 1 2 2 1
5 5 6 8 9 11 13 12 11 10 9 7 6 6 6 5 5 5 5 5 5 4 4 3 4 4 4 3 2 1 1 3 4 3 2 1 0 0 0 0 0 1 1
5 5 7 8 10 12 15 14 11 9 8 7 6 6 5 5 5 5 6 5 5 5 4 4 4 5 5 4 3 2 1 1 2 2 1 1 0 0 1 1 0 1 1
4 5 6 7 8 10 11 11 9 7 7 6 6 5 5 5 5 6 6 5 5 4 4 4 4 5 4 4 3 2 2 1 1 2 2 2 1 1 1 1 1 1 2
4 5 6 6 7 7 7 7 6 6 6 6 5 5 5 5 5 6 5 5 4 4 4 4 4 4 4 3 2 2 2 1 2 2 3 2 2 1 2 1 1 2 2
Wind_Speed
8 8 8 7 7 6 6 5 5 5 4 3 3 2 2 2 2 1 1 1 1 1 1 1 1 1 1 1 2 2 3 2 2 2 2 3 3 2 2 2 2 2 2
9 9 8 8 8 7 6 6 6 5 5 3 2 1 1 1 1 1 2 1 1 2 2 1 1 1 1 1 1 2 2 2 2 3 3 3 3 3 2 2 3 2 2
10 10 10 9 8 8 8 6 5 5 4 4 3 2 2 2 2 2 2 2 2 2 1 1 1 1 2 1 2 2 3 3 3 3 3 3 1 1 3 3 2 2 2
10 10 11 10 9 9 8 7 6 6 5 5 3 3 2 1 1 1 1 2 2 2 2 2 2 2 2 1 3 2 3 3 3 2 3 3 3 2 1 2 2 2 2
11 11 11 10 9 9 8 8 7 6 5 5 4 4 3 2 1 1 2 2 2 2 2 2 2 3 2 2 2 1 3 3 3 2 2 3 3 4 3 2 1 2 2
11 11 10 10 9 8 8 7 7 6 5 5 4 4 3 2 2 2 2 2 2 2 2 2 2 2 2 2 2 2 3 2 3 3 3 3 2 3 3 3 2 2 1
11 11 11 11 10 9 8 8 7 6 5 5 4 4 3 3 3 3 2 2 1 1 1 1 2 2 1 2 2 2 2 2 3 3 3 3 3 3 3 3 3 3 2
10 11 11 10 10 9 9 8 7 6 6 5 4 3 4 3 2 2 2 1 1 1 0 1 2 2 2 2 2 2 2 2 3 3 3 3 3 3 3 3 3 3 2
10 10 10 10 10 9 8 8 7 6 6 5 4 4 3 2 2 2 2 2 1 1 1 1 1 1 1 1 2 1 2 2 3 2 3 3 2 2 2 2 3 4 3
9 10 9 10 9 9 8 7 7 6 6 5 4 4 3 3 2 2 1 1 1 0 1 1 1 1 1 1 2 2 1 2 1 2 2 3 2 1 2 2 3 3 4
9 9 8 9 9 8 8 8 7 7 6 5 4 3 3 3 3 2 2 1 1 1 1 0 1 1 1 1 1 1 1 1 1 1 1 2 2 2 2 2 2 2 2
7 8 8 8 9 9 8 8 7 7 6 5 5 4 3 3 3 2 2 2 1 1 1 1 1 1 1 1 1 1 1 1 1 1 1 2 1 1 2 1 1 1 1
7 7 8 8 8 8 7 7 7 6 6 5 5 4 4 4 3 3 2 2 2 1 1 1 1 1 0 1 1 1 0 1 1 1 1 1 1 1 1 1 1 0 1
6 6 6 7 7 6 6 6 6 6 6 6 5 5 4 3 3 3 3 2 2 2 1 1 1 1 1 0 0 1 1 1 1 1 1 2 1 1 1 0 0 0 0
6 6 6 7 7 7 7 7 6 6 6 6 6 5 4 4 3 3 3 2 2 2 2 1 1 1 1 0 1 1 1 1 1 1 1 3 3 4 3 2 1 0 1
5 5 6 6 6 6 7 7 7 7 6 6 5 4 4 4 4 3 3 2 2 1 2 2 1 1 1 4 3 2 1 1 1 1 1 2 2 3 3 3 3 3 1
3 4 5 5 5 5 6 6 6 6 6 6 5 5 5 4 4 4 4 3 3 2 2 2 2 1 2 2 1 3 2 1 1 1 1 0 2 1 2 3 3 2 2
3 3 3 4 4 5 5 5 6 7 6 6 6 6 6 5 5 5 4 4 3 3 2 2 2 2 2 2 1 3 3 2 2 1 1 1 1 2 0 1 2 2 2
3 3 3 3 4 4 5 6 6 7 7 6 6 6 6 5 5 5 4 4 3 3 3 3 3 3 3 2 2 4 3 2 2 2 2 1 2 2 2 1 2 2 2
2 2 2 3 3 4 4 5 6 6 6 6 6 6 6 5 5 5 4 3 3 4 3 3 3 3 3 4 3 5 3 3 3 3 3 3 2 2 1 1 1 1 1
2 2 2 2 3 3 4 4 4 4 4 5 5 5 5 5 5 5 5 5 5 4 4 4 4 4 3 5 5 4 4 2 3 3 3 3 4 3 2 3 1 1 2
2 2 2 1 2 3 4 4 4 3 3 4 5 5 5 5 5 5 5 5 5 6 5 5 4 4 4 4 5 5 4 4 3 3 2 3 5 4 3 2 1 2 5
2 2 2 2 2 2 3 3 3 3 3 4 5 5 5 5 5 6 6 6 5 5 5 5 5 4 4 5 7 8 6 5 4 2 2 3 5 6 5 5 4 5 4
2 2 2 2 2 2 2 3 2 3 3 4 4 4 5 5 5 5 5 5 5 5 5 4 4 4 4 4 5 6 7 7 6 5 5 7 7 6 4 5 6 5 3
2 3 3 3 3 2 3 2 2 4 5 5 5 5 5 4 4 4 3 4 3 3 4 4 4 4 5 4 3 4 4 4 3 3 4 5 5 6 5 4 4 4 4
2 3 3 3 3 3 3 3 3 4 5 5 5 5 4 4 4 4 3 0 2 1 3 4 5 3 2 4 5 5 4 3 4 5 6 5 5 5 5 4 4 4 4
Wind_Direction
175 174 176 176 172 171 173 177 181 172 188 189 197 183 173 175 171 171 137 176 202 180 214 224 155 248 221 249 239 235 212 225 234 236 229 218 210 213 212 219 225 203 209
175 177 179 178 180 177 179 182 182 178 190 178 195 195 187 189 155 145 133 191 199 217 199 209 232 218 230 242 253 246 258 241 220 250 254 230 198 200 202 204 211 220 207
184 180 182 182 183 182 184 184 182 180 186 185 191 182 180 201 177 176 176 197 206 216 251 236 262 250 242 225 243 231 235 247 236 243 266 275 252 212 176 195 200 214 226
190 187 184 184 187 185 181 180 181 182 183 196 203 205 208 209 178 210 157 188 209 226 229 237 240 256 260 236 240 214 242 240 241 227 246 273 312 282 232 187 187 201 228
190 189 189 186 186 185 180 177 178 181 184 196 199 216 224 213 202 205 165 222 207 226 231 234 240 243 254 256 263 240 254 250 258 252 238 241 241 252 262 256 244 233 227
186 187 187 182 182 181 179 174 174 180 186 195 199 216 226 227 231 232 218 219 204 211 212 230 239 246 259 254 251 248 233 261 269 270 262 255 253 252 253 255 247 244 248
184 182 181 178 177 178 177 173 172 177 183 191 199 205 217 221 223 231 216 240 236 209 178 240 239 254 253 256 260 243 258 253 260 263 268 266 266 272 269 266 263 261 240
182 180 178 175 175 176 177 177 174 177 180 185 192 202 216 228 221 233 262 245 267 289 278 225 231 245 252 248 238 244 237 243 256 262 267 263 265 270 270 273 276 271 252
176 176 175 174 172 175 176 174 171 176 179 180 186 191 201 224 226 221 234 232 236 236 220 225 223 224 229 254 250 258 259 252 263 262 249 264 264 270 277 273 264 270 274
171 173 172 172 169 169 169 171 171 172 174 177 188 179 188 197 206 219 211 254 254 276 236 221 197 195 195 214 243 223 226 245 257 279 293 281 276 267 262 259 258 264 275
173 171 171 170 165 165 168 170 167 168 172 172 172 178 180 184 192 194 193 199 203 195 211 212 202 212 229 216 232 263 242 246 258 276 270 274 293 280 267 255 253 258 263
169 168 167 167 168 170 169 169 171 173 172 168 168 174 174 172 182 177 182 178 171 189 186 199 202 226 237 237 230 258 280 290 304 309 311 305 305 291 287 270 253 248 243
167 167 166 169 172 171 169 169 174 172 166 163 167 168 176 177 180 182 175 163 164 171 197 181 180 201 219 216 215 244 287 341 349 338 325 336 342 342 343 308 290 235 180
163 168 166 168 169 168 167 172 176 174 168 168 172 172 177 176 177 179 173 167 163 157 160 169 179 178 198 190 197 191 168 136 78 45 26 23 19 13 343 287 291 290 217
163 168 169 166 170 171 170 176 179 177 175 175 177 174 169 169 177 176 167 163 165 155 145 157 167 189 193 3 301 206 166 163 140 108 74 65 55 39 13 357 9 245 227
168 172 178 175 176 180 181 177 176 172 175 178 176 169 170 170 173 172 168 166 165 170 157 167 168 183 61 51 16 313 177 182 161 131 116 132 120 98 92 61 42 22 300
166 178 187 185 184 186 187 181 174 169 173 176 175 172 173 175 179 179 175 178 183 179 178 187 182 170 97 81 26 321 265 188 159 151 174 140 93 160 115 136 157 115 62
168 183 190 184 188 189 182 181 175 173 175 178 179 179 181 181 179 181 183 188 188 187 198 198 185 181 134 136 200 265 223 168 160 164 162 143 112 66 10 140 124 116 97
172 184 197 188 185 182 177 183 187 181 182 184 184 184 186 183 183 187 191 192 189 191 201 195 194 190 157 161 207 249 200 171 174 176 158 160 135 71 326 197 153 155 153
145 164 183 176 175 174 182 190 196 194 193 189 186 184 185 185 188 189 193 191 198 199 204 192 203 203 183 160 196 245 221 184 186 171 161 123 111 115 294 221 182 179 172
146 154 165 171 173 175 185 195 198 206 200 189 186 185 182 185 194 194 198 195 198 201 205 199 205 207 199 169 182 231 249 216 212 195 182 138 137 158 226 257 223 204 259
153 159 156 158 165 178 190 197 196 200 197 194 192 195 192 195 189 193 202 206 203 200 201 203 209 200 192 188 179 197 234 272 235 232 205 141 157 177 210 231 177 237 254
160 172 174 173 168 185 199 208 197 188 195 202 204 201 194 198 197 199 205 202 202 211 208 208 211 204 194 177 179 192 209 229 242 230 107 155 183 199 202 198 207 223 233
188 192 196 193 193 201 215 218 200 186 192 203 208 201 200 201 201 210 213 215 205 213 216 219 222 211 205 205 193 196 197 200 210 207 176 189 207 225 223 195 204 219 232
215 216 217 217 217 216 226 221 220 210 203 206 214 211 210 201 203 216 232 234 230 244 244 238 237 235 224 207 196 221 215 218 213 212 212 211 205 210 213 210 210 219 214
216 221 225 228 229 229 234 226 219 225 212 212 213 215 211 198 206 203 207 284 266 194 235 268 277 259 234 175 187 208 218 205 193 218 223 223 224 224 220 216 210 209 216